Regional Weather Roundup
Issued by NWS

Home | Current Version | Previous Version | Text Only | Print | Product List | Glossary Off
Versions: 1 2 3 4 5 6 7 8 9 10 11 12 13 14 15 16 17 18 19 20 21 22 23 24 25 26 27 28 29 30 31 32 33 34 35 36 37 38 39 40 41 42 43 44 45 46 47 48 49 50

000
ASUS43 KMPX 240810
RWRMN
WEATHER ROUNDUP FOR MINNESOTA
NATIONAL WEATHER SERVICE TWIN CITIES/CHANHASSEN MN
300 AM CDT SUN SEP 24 2017


NOTE: "FAIR" INDICATES FEW OR NO CLOUDS BELOW 12,000 FEET WITH NO
SIGNIFICANT WEATHER AND/OR OBSTRUCTIONS TO VISIBILITY. N/A MEANS
CURRENT SKY AND/OR WEATHER CONDITIONS ARE NOT AVAILABLE.

MNZ060>063-068>070-240900-
   Twin Cities Metro

CITY           SKY/WX    TMP DP  RH WIND       PRES   REMARKS
TWIN CITIES    CLEAR     77  65  66 S10       29.94S
ST PAUL        PTCLDY    71  66  84 SE7       29.94S
CRYSTAL        CLEAR     68  65  90 CALM      29.92F
BLAINE         CLEAR     68  66  94 SE5       29.93F
LAKEVILLE      CLEAR     66  63  88 CALM      29.95S
EDEN PRAIRIE   CLEAR     74  64  71 S5        29.92F
SOUTH ST PAUL  PTCLDY    72  64  75 S7        29.94F
LAKE ELMO      FAIR      72  64  78 SE7       29.96F
$$
MNZ001>005-007-008-013>017-022>024-027-028-240900-
   Northwest Minnesota

CITY           SKY/WX    TMP DP  RH WIND       PRES   REMARKS
BEMIDJI        CLOUDY    55  55  98 E3        29.94F
HALLOCK        DRIZZLE   52  52 100 N10       29.98F
ROSEAU         RAIN      54  48  82 NE10      29.98F
WARROAD        RAIN      55  52  88 NE10      29.99F
THIEF RVR FALL LGT RAIN  54  54 100 NE13      29.92F
CROOKSTON      DRIZZLE   55  54  94 NE8       29.93F
FOSSTON        LGT RAIN  54  52  94 E5        29.91F
DETROIT LAKES  CLOUDY    59  57  94 SE6       29.91F
MOORHEAD       DRIZZLE   55  55 100 NW3       29.90S
PARK RAPIDS    CLOUDY    59  57  93 SE7       29.93F
MAHNOMEN       PTSUNNY   57  56  97 SE8       29.88S
$$
MNZ006-009>011-018-025>026-240900-
   North Central Minnesota

CITY           SKY/WX    TMP DP  RH WIND       PRES   REMARKS
BAUDETTE       CLOUDY    55  55 100 NE7       29.98F
FLAG ISLAND    RAIN      54  52  94 NE5       30.00F
INTL FALLS     LGT RAIN  57  55  93 NE5       29.99F
WASKISH        LGT RAIN  55  54  94 NE6       29.96S
BIG FORK       DRIZZLE   55  55 100 E3        29.98F
LONGVILLE      HVY RAIN  57  57 100 E5        29.97F VSB 3/4
GRAND RAPIDS   LGT RAIN  58  57  97 VRB5      29.97F
CRANE LAKE     LGT RAIN  57  55  94 CALM      30.00F
ORR            DRIZZLE   57  54  88 CALM      29.97F
COOK           LGT RAIN  57  57 100 CALM      30.01R
WALKER         CLOUDY    57  57  98 E7        29.95F
$$
MNZ012-019>021-037-240900-
   Northeast Minnesota

CITY           SKY/WX    TMP DP  RH WIND       PRES   REMARKS
DULUTH         CLOUDY    64  63  96 E7        29.97F
ELY            LGT RAIN  59  59 100 E3        30.02F
HIBBING        CLOUDY    59  59 100 NE6       29.98F
EVELETH        CLOUDY    60  57  90 CALM      30.01S
DULUTH HARBOR  CLOUDY    66  64  94 E8        29.96F
GRAND MARAIS     N/A     65  64  97 CALM      29.97S
$$
MNZ029>031-032-039>041-046>048-054>057-064-240900-
   West Central Minnesota

CITY           SKY/WX    TMP DP  RH WIND       PRES   REMARKS
FERGUS FALLS   CLOUDY    61  61 100 SE9       29.88F
WHEATON        CLOUDY    63  61  94 SW7       29.91R
ALEXANDRIA     CLOUDY    62  60  93 E9        29.93F
ELBOW LAKE     CLOUDY    60  60  99 SE12      29.89F
WADENA         CLOUDY    57  57 100 E5        29.93S
GLENWOOD       MOCLDY    61  59  94 E9        29.93F
APPLETON       PTCLDY    63  61  94 E12       29.89F
BENSON         CLOUDY    63  61  94 E8        29.92F
ORTONVILLE     PTCLDY    61  59  94 NE9       29.88F
MADISON        CLOUDY    64  64 100 E10       29.89F
WILLMAR        CLOUDY    64  64 100 NE6       29.93F FOG
$$
MNZ033>034-036-042>043-049>051-058-059-240900-
   Central Minnesota

CITY           SKY/WX    TMP DP  RH WIND       PRES   REMARKS
ST CLOUD       CLEAR     64  64 100 NE3       29.93S
SAUK CENTRE    CLOUDY    59  59  99 N6        29.95F FOG
PAYNESVILLE    CLOUDY    63  63 100 N3        29.95S FOG
AITKIN         CLOUDY    61  57  88 CALM      29.94F
PINE RIVER     CLOUDY    55  55 100 W3        30.00R
BRAINERD       CLOUDY    60  60 100 CALM      29.95R
STAPLES        RAIN      59  59 100 E5        29.95S
LITTLE FALLS   CLOUDY    61  59  94 CALM      29.95F FOG
LITCHFIELD     CLOUDY    64  64 100 CALM      29.93F FOG
BUFFALO        CLEAR     65  63  91 CALM      29.93F
MAPLE LAKE     CLEAR     64  64  98 CALM      29.93F FOG
HUTCHINSON     CLOUDY    65  65  99 CALM      29.94S
$$
MNZ037-044-045-052-053-240900-
   East Central Minnesota

CITY           SKY/WX    TMP DP  RH WIND       PRES   REMARKS
PRINCETON      CLEAR     66  64  94 CALM      29.93F
MORA           CLEAR     61  59  94 CALM      29.96F FOG
RUSH CITY      PTCLDY    66  64  95 CALM      29.94F
MOOSE LAKE     PTCLDY    63  61  94 CALM      29.95S
HINCKLEY       FAIR      64  64 100 CALM      29.95S
CLOQUET        MOCLDY    63  59  88 CALM      29.97F
MCGREGOR       MOCLDY    61  59  94 N3        29.96S
$$
MNZ071>073-080-081-089-090-097-098-240900-
   Southwest Minnesota

CITY           SKY/WX    TMP DP  RH WIND       PRES   REMARKS
MONTEVIDEO     CLOUDY    61  61 100 E7        29.91F
GRANITE FALLS  FOG       62  62  99 NE3       29.92F VSB 3/4
CANBY          CLOUDY    61  60  97 SE8       29.91F FOG
MARSHALL       FOG       58  57  97 SE3       29.92F VSB 1/4
REDWOOD FALLS  FOG       61  60  97 NW3       29.92S VSB 1/4
OLIVIA         CLOUDY    63  61  94 CALM      29.92S FOG
PIPESTONE      FOG       57  57 100 E7        29.91F VSB 1
WORTHINGTON    MOCLDY    60  59  96 NE3       29.94S
JACKSON        CLEAR     66  61  82 CALM      29.95S
TRACY          FOG       58  58 100 CALM      29.94F VSB 1/4
SLAYTON        HAZE      57  50  78 CALM      29.94F VSB 1/4
$$
MNZ065>067-074>077-082>085-091>093-240900-
   South Central Minnesota

CITY           SKY/WX    TMP DP  RH WIND       PRES   REMARKS
MANKATO        CLEAR     71  65  81 SE7       29.94S
NEW ULM        PTCLDY    64  63  94 CALM      29.93S
ST JAMES       PTCLDY    63  63 100 CALM      29.94S
FAIRMONT       CLOUDY    69  64  84 S7        29.94S
FARIBAULT      CLEAR     70  63  78 S3        29.96S
OWATONNA       CLEAR     73  63  68 SE12      29.96F
WASECA         CLEAR     70  63  78 SE5       29.97S
ALBERT LEA     CLEAR     73  64  73 SE7       29.97S
$$
MNZ078>079-086>088-094>096-240900-
   Southeast Minnesota

CITY           SKY/WX    TMP DP  RH WIND       PRES   REMARKS
ROCHESTER      CLEAR     68  62  81 S9        30.00F
RED WING       CLEAR     73  61  64 E6        29.96R
STANTON        CLEAR     70  63  77 S5        29.94F
DODGE CENTER   CLEAR     66  61  82 SE7       29.99S
WINONA         CLEAR     72  64  78 CALM      29.99S
AUSTIN         CLEAR     70  61  73 SE5       29.99S
PRESTON        CLEAR     69  61  74 S7        30.02S
$$
ABBREVIATIONS USED IN REMARKS
   TC - TEMPERATURES IN CELSIUS
  WCI - WIND CHILL INDEX
   HX - HEAT INDEX
  VSB - VISIBILITY
$$




USA.gov is the U.S. government's official web portal to all federal, state and local government web resources and services.